CW7283 Weather Reports


time (UTC)temp
C
wind
direction
speed
KPH
gust
KPH
rain 1hr
cm
rain 24hr
cm
rain mn
cm
humidity
%
barometer
mb
20260831221837 25 336 0.0 3.2 0.00 0.00 0.00 27 1015.9
20260831220326 25 355 0.0 3.2 0.00 0.00 0.00 30 1016.0
20260831214832 25 288 0.0 3.2 0.00 0.00 0.00 26 1016.2
20260831213333 25 313 0.0 3.2 0.00 0.00 0.00 27 1016.4
20260831211835 25 242 0.0 3.2 0.00 0.00 0.00 27 1016.6
20260831210338 24 196 0.0 3.2 0.00 0.00 0.00 28 1016.8
20260831204856 24 198 0.0 3.2 0.00 0.00 0.00 28 1017.1
20260831203359 23 106 0.0 3.2 0.00 0.00 0.00 30 1017.2
20260831201829 23 87 0.0 4.8 0.00 0.00 0.00 31 1017.4
20260831200341 23 89 0.0 3.2 0.00 0.00 0.00 31 1017.5
20260831194843 23 217 1.6 4.8 0.00 0.00 0.00 30 1017.7
20260831193329 22 144 0.0 6.4 0.00 0.00 0.00 31 1017.7
20260831191853 22 186 0.0 3.2 0.00 0.00 0.00 33 1017.8
20260831190356 22 110 0.0 1.6 0.00 0.00 0.00 34 1017.9
20260831184846 21 298 0.0 3.2 0.00 0.00 0.00 34 1017.8
20260831183328 21 53 0.0 4.8 0.00 0.00 0.00 36 1018.2
20260831181826 21 144 0.0 3.2 0.00 0.00 0.00 35 1018.3
20260831180329 20 311 0.0 3.2 0.00 0.00 0.00 36 1018.4
20260831174837 20 118 0.0 4.8 0.00 0.00 0.00 38 1018.4
20260831173327 20 193 1.6 4.8 0.00 0.00 0.00 38 1018.5
20260831171847 19 5 0.0 3.2 0.00 0.00 0.00 40 1018.5
20260831170334 19 226 1.6 4.8 0.00 0.00 0.00 38 1018.6
20260831164831 19 108 0.0 3.2 0.00 0.00 0.00 39 1018.6
20260831163341 19 65 0.0 3.2 0.00 0.00 0.00 41 1018.5
20260831161844 18 105 0.0 3.2 0.00 0.00 0.00 40 1018.3
20260831160332 17 355 0.0 3.2 0.00 0.00 0.00 45 1018.4
20260831154838 16 344 0.0 3.2 0.00 0.00 0.00 44 1018.3
20260831153335 15 100 0.0 3.2 0.00 0.00 0.00 58 1018.3
20260831151845 13 100 0.0 3.2 0.00 0.00 0.00 60 1018.3
20260831150339 12 129 0.0 0.0 0.00 0.00 0.00 68 1018.3
20260831144830 11 143 0.0 0.0 0.00 0.00 0.00 66 1018.2
20260831143342 11 132 0.0 1.6 0.00 0.00 0.00 68 1018.2
20260831141828 10 126 0.0 0.0 0.00 0.00 0.00 68 1017.9
20260831140332 8 94 0.0 0.0 0.00 0.00 0.00 72 1017.7
20260831134839 7 329 0.0 0.0 0.00 0.00 0.00 77 1017.6
20260831133356 7 160 0.0 0.0 0.00 0.00 0.00 83 1017.4
20260831131832 6 160 0.0 0.0 0.00 0.00 0.00 84 1017.2
20260831130329 6 160 0.0 0.0 0.00 0.00 0.00 83 1017.1
20260831124837 6 160 0.0 0.0 0.00 0.00 0.00 84 1016.8
20260831123335 6 160 0.0 0.0 0.00 0.00 0.00 83 1016.5
20260831121833 6 136 0.0 3.2 0.00 0.00 0.00 85 1016.5
20260831120343 6 134 0.0 0.0 0.00 0.00 0.00 86 1016.4
20260831114829 6 134 0.0 3.2 0.00 0.00 0.00 87 1016.5
20260831113353 6 46 0.0 0.0 0.00 0.00 0.00 88 1016.4
20260831111837 6 318 0.0 0.0 0.00 0.00 0.00 93 1016.2
20260831110332 5 318 0.0 0.0 0.00 0.00 0.00 92 1016.2
20260831104826 5 315 0.0 0.0 0.00 0.00 0.00 91 1016.2
20260831103403 5 306 0.0 0.0 0.00 0.00 0.00 90 1015.8
20260831101839 6 306 0.0 0.0 0.00 0.00 0.00 91 1015.8
20260831100347 6 306 0.0 0.0 0.00 0.00 0.00 90 1015.4
20260831094840 6 306 0.0 0.0 0.00 0.00 0.00 89 1015.3
20260831093356 6 306 0.0 0.0 0.00 0.00 0.00 87 1015.2
20260831091850 6 303 0.0 0.0 0.00 0.00 0.00 88 1014.8
20260831090327 7 286 0.0 0.0 0.00 0.00 0.00 88 1014.7
20260831084857 6 286 0.0 0.0 0.00 0.00 0.00 88 1014.6
20260831083336 7 294 0.0 0.0 0.00 0.00 0.00 87 1014.6
20260831081838 7 301 0.0 3.2 0.00 0.00 0.00 87 1014.6
20260831080342 7 200 0.0 0.0 0.00 0.00 0.00 87 1014.3
20260831074851 7 200 0.0 0.0 0.00 0.00 0.00 86 1014.5
20260831073333 8 200 0.0 0.0 0.00 0.00 0.00 85 1014.5
20260831071828 8 200 0.0 0.0 0.00 0.00 0.00 85 1014.5
20260831070414 8 196 0.0 0.0 0.00 0.00 0.00 84 1014.3
20260831064829 8 196 0.0 0.0 0.00 0.00 0.00 83 1014.5
20260831063337 9 196 0.0 0.0 0.00 0.00 0.00 83 1014.4
20260831061839 9 196 0.0 1.6 0.00 0.00 0.00 83 1014.6
20260831060350 9 223 0.0 0.0 0.00 0.00 0.00 82 1014.5
20260831054840 10 147 0.0 0.0 0.00 0.00 0.00 81 1014.7
20260831053402 10 188 0.0 3.2 0.00 0.00 0.00 80 1014.8
20260831051838 10 307 0.0 0.0 0.00 0.00 0.00 80 1014.8
20260831050333 10 272 0.0 0.0 0.00 0.00 0.00 78 1014.8
20260831044919 11 163 0.0 0.0 0.00 0.00 0.00 77 1015.0
20260831043401 11 163 0.0 0.0 0.00 0.00 0.00 76 1015.0
20260831041903 12 213 0.0 0.0 0.00 0.00 0.00 74 1015.1
20260831040330 12 286 0.0 0.0 0.00 0.00 0.00 72 1015.0
20260831034900 12 315 0.0 0.0 0.00 0.00 0.00 70 1015.0
20260831033327 13 315 0.0 0.0 0.00 0.00 0.00 70 1015.0
20260831031852 13 315 0.0 0.0 0.00 0.00 0.00 69 1015.1
20260831030336 13 315 0.0 0.0 0.00 0.00 0.00 68 1014.8
20260831024837 14 315 0.0 0.0 0.00 0.00 0.00 66 1014.7
20260831023358 15 315 0.0 0.0 0.00 0.00 0.00 65 1014.4
20260831021859 15 315 0.0 0.0 0.00 0.00 0.00 63 1014.2
20260831020334 16 315 0.0 0.0 0.00 0.00 0.00 61 1014.1
20260831014839 16 315 0.0 0.0 0.00 0.00 0.00 60 1013.9
20260831013327 16 333 0.0 3.2 0.00 0.00 0.00 58 1013.9
20260831011841 17 355 0.0 3.2 0.00 0.00 0.00 58 1013.7
20260831010353 17 9 0.0 3.2 0.00 0.00 0.00 56 1013.6
20260831004840 18 325 0.0 3.2 0.00 0.00 0.00 55 1013.6
20260831003354 18 321 1.6 4.8 0.00 0.00 0.00 54 1013.5
20260831001835 18 310 0.0 4.8 0.00 0.00 0.00 52 1013.4
20260831000340 20 9 0.0 4.8 0.00 0.00 0.00 48 1013.2
20260830234828 19 355 0.0 4.8 0.00 0.00 0.00 48 1013.1
20260830233341 20 43 0.0 6.4 0.00 0.00 0.00 48 1013.0
20260830231836 20 300 0.0 9.7 0.00 0.00 0.00 46 1012.9
20260830230351 21 15 0.0 3.2 0.00 0.00 0.00 45 1012.7
20260830224856 21 271 0.0 9.7 0.00 0.00 0.00 46 1012.5
20260830223331 22 9 0.0 16.1 0.00 0.00 0.00 47 1012.4